Regional Weather Roundup
Issued by NWS

Home | Current Version | Previous Version | Graphics & Text | Print | Product List | Glossary On
Versions: 1 2 3 4 5 6 7 8 9 10 11 12 13 14 15 16 17 18 19 20 21 22 23 24 25 26 27 28 29 30 31 32 33 34 35 36 37 38 39 40 41 42 43 44 45 46 47 48 49 50
000
ASUS45 KTFX 041110
RWRMT
MONTANA REGIONAL WEATHER ROUNDUP
NATIONAL WEATHER SERVICE GREAT FALLS MT
500 AM MDT SAT JUL 04 2015

NOTE: "FAIR" INDICATES FEW OR NO CLOUDS BELOW 12000 FEET WITH NO
SIGNIFICANT WEATHER AND/OR OBSTRUCTIONS TO VISIBILITY.

MTZ001>007-043-041200-
WEST OF THE DIVIDE

CITY           SKY/WX    TMP DP  RH WIND       PRES   REMARKS
KALISPELL      SUNNY     55  48  77 CALM      29.82S
MISSOULA       CLEAR     66  46  48 NE6       29.90R
BUTTE          CLEAR     52  38  58 CALM      30.05R
MULLAN PASS    CLEAR     67  34  29 NW5       30.06S
DEER LODGE       N/A     55  43  62 CALM      30.02R
EUREKA           N/A     59  46  63 CALM      29.83R
HAMILTON         N/A     63  45  51 S9        29.92S
PLAINS           N/A     57  46  66 CALM      29.86S
RONAN            N/A     58  49  72 CALM      29.90S
$$

MTZ008-052>055-041200-
SOUTHWEST MONTANA

CITY           SKY/WX    TMP DP  RH WIND       PRES   REMARKS
BOZEMAN        CLEAR     56  45  66 S7        29.95R
DILLON         PTCLDY    56  40  55 SW7       30.00S
W YELLOWSTONE  CLEAR     41  39  93 CALM      30.12S
THREE FORKS      N/A     52  52 100 CALM      29.95R
TWIN BRIDGES     N/A     54  40  59 E5        29.99R
$$

MTZ009-010-012-014-046-048-049-054-041200-
EAST SLOPES AND CENTRAL MONTANA

CITY           SKY/WX    TMP DP  RH WIND       PRES   REMARKS
CUT BANK       CLEAR     64  43  46 W9        29.83S
GREAT FALLS    CLEAR     62  43  49 SW8       29.84R
MALMSTROM AFB  CLEAR     66  46  46 SW9       29.83S
HELENA         CLEAR     67  41  38 CALM      29.90S
CONRAD           N/A     60  53  77 CALM      29.86F
$$

MTZ011-013-016-021-045-047-050-051-041200-
NORTH CENTRAL MONTANA

CITY           SKY/WX    TMP DP  RH WIND       PRES   REMARKS
HAVRE          CLEAR     57  48  72 SW6       29.73S
LEWISTOWN      CLEAR     59  50  72 S7        29.87R
CHINOOK          N/A     64  48  55 CALM      29.72S
FORT BENTON      N/A     66  48  52 SW3       29.78S
$$

MTZ017>020-022>027-061-062-041200-
NORTHEAST MONTANA

CITY           SKY/WX    TMP DP  RH WIND       PRES   REMARKS
GLASGOW        CLEAR     63  55  75 E9        29.73S
JORDAN           N/A     57  51  80 W3        29.76F
SIDNEY         CLEAR     63  57  82 S5        29.78F
WOLF POINT     CLEAR     62  58  86 E5        29.75S FOG
PLENTYWOOD       N/A     64  63  94 E5        29.76F
POPLAR           N/A    N/A N/A N/A CALM      29.75F
SCOBEY           N/A     61  57  86 SE1       29.76F
$$

MTZ028>42-056>058-041200-
SOUTHCENTRAL AND SOUTHEAST MONTANA

CITY           SKY/WX    TMP DP  RH WIND       PRES   REMARKS
BAKER          PTCLDY    61  57  87 SE8       29.84F
BILLINGS       PTCLDY    67  53  61 W6        29.86R
LIVINGSTON     CLEAR     56  47  71 VRB3      29.94S
MILES CITY     CLEAR     67  59  75 E5        29.79S
EKALAKA          N/A     71  55  56 SE5       29.85F
FORSYTH          N/A     63  55  77 CALM      29.78F
LAUREL           N/A     61  49  64 SW2       29.86S
ROUNDUP          N/A     62  48  60 CALM      29.78R
$$

REGIONAL REPORTS...DAKOTAS

CITY           SKY/WX    TMP DP  RH WIND       PRES   REMARKS
WILLISTON      CLEAR     62  58  86 CALM      29.78F FOG
MINOT          CLEAR     65  61  87 CALM      29.78F FOG
DICKINSON      CLEAR     63  59  87 S10       29.83S FOG
BEACH          FAIR      63  63 100 S8        29.82F
CROSBY         FAIR      64  64 100 S13       29.76F FOG
BISMARCK       PTCLDY    63  62  97 SE6       29.86S FOG
GRAND FORKS    CLOUDY    61  58  90 S3        29.87S FOG
FARGO          CLEAR     65  60  84 SE7       29.89S HAZE
BUFFALO SD       N/A     63  60  90 CALM      29.80F
RAPID CITY     CLEAR     61  58  90 SE7       29.88F
$$

REGIONAL REPORTS...WYOMING/IDAHO/WASHINGTON

CITY           SKY/WX    TMP DP  RH WIND       PRES   REMARKS
GILLETTE       CLEAR     63  57  81 SE8       29.91S
SHERIDAN       PTCLDY    58  52  80 CALM      29.88R
BUFFALO WY     PTCLDY    68  47  46 W7        29.94S
CODY           CLEAR     66  46  48 SW8       29.97S
YELLOWSTONE LA   N/A     44  40  85 CALM      30.21S
IDAHO FALLS    CLEAR     59  53  80 N3        29.96R
SALMON         PTCLDY    54  46  76 CALM      29.97R
BOISE          MOCLDY    75  45  34 S6        29.83R
SPOKANE        PTCLDY    71  37  28 S8        29.80S
$$

REGIONAL REPORTS...ALBERTA

CITY           SKY/WX    TMP DP  RH WIND       PRES   REMARKS
EDMONTON       CLEAR     57  39  51 NW6       29.89R
CALGARY        CLOUDY    61  46  59 N6        29.96S
LETHBRIDGE     CLEAR     61  54  77 NW16G22   29.87R
MEDICINE HAT   CLOUDY    68  57  68 N13G21    29.78R
WATERTON GATE    N/A     59  52  77 E3          N/A
CARDSTON         N/A     55  54  94 NW6         N/A
MILK RIVER       N/A     59  50  72 W10         N/A
ONEFOUR          N/A     63  45  51 N10         N/A
$$

REGIONAL REPORTS...SASKATCHEWAN

CITY           SKY/WX    TMP DP  RH WIND       PRES   REMARKS
SWIFT CURRENT  MOCLDY    61  55  82 E9        29.74R
REGINA         CLOUDY    64  63  94 E7        29.75F FOG
SASKATOON      MOCLDY    63  57  82 NW9       29.76S
CYPRESS HILLS    N/A     66  46  48 N6          N/A
ROCKGLEN         N/A     63  57  82 S12         N/A
ASSINIBOIA       N/A     55  50  82 SW6         N/A
$$


USA.gov is the U.S. government's official web portal to all federal, state and local government web resources and services.